User: anonymous   Login
Location: Unspecified
(51.0950°N, 12.9690°E)
Time: 14:34:45
(UTC+00:00)
Language:

H-2A R/B - Orbit

View from above orbital plane
View from above orbital plane
View from above satellite
View from above satellite

Ground track
Ground track

The orbit data is extracted from the following two-line orbital elements,

1 27601U 02056E   22019.93958227  .00000046  00000-0  31290-4 0  9997
2 27601  98.1800  35.0161 0071766 345.2828  73.3621 14.32029392997911
Epoch (UTC): 19 January 2022 22:32:59
Eccentricity: 0.0071766
inclination: 98.1800°
perigee height: 733 km
apogee height: 836 km
right ascension of ascending node: 35.0161°
argument of perigee: 345.2828°
revolutions per day: 14.32029392
mean anomaly at epoch: 73.3621°
orbit number at epoch: 99791

The dashed part of the orbit path shows where the satellite is in the earth's shadow,  

DLR